User: anonymous   Login
Location: Plymouth
(43.7570°N, 71.6890°W)
Time: 20:14:19
(UTC-04:00)
Language:

Cosmos 2016 Rocket - Orbit

View from above orbital plane
View from above orbital plane
View from above satellite
View from above satellite

Ground track
Ground track

The orbit data is extracted from the following two-line orbital elements,

1 19922U 89028B   17177.17489596 +.00000010 +00000-0 -54319-5 0  9991
2 19922 082.9591 060.1249 0035588 219.0111 140.8479 13.77200815418218
Epoch (UTC): 26 June 2017 04:11:51
Eccentricity: 0.0035588
inclination: 82.9591°
perigee height: 947 km
apogee height: 1000 km
right ascension of ascending node: 60.1249°
argument of perigee: 219.0111°
revolutions per day: 13.77200815
mean anomaly at epoch: 140.8479°
orbit number at epoch: 41821

The dashed part of the orbit path shows where the satellite is in the earth's shadow,  

DLR